Location: ??????
(55.4348°N, 39.2112°E)
Time: 07:30:00
(UTC+00:00)

CZ-2C R/B - Visible Passes

Search period start: 13 July 2024 00:00
Search period end: 23 July 2024 00:00
Orbit: 702 x 905 km, 98.2° (Epoch: 12 July)

Date Brightness Start Highest point End Pass type
(mag) Time Alt. Az. Time Alt. Az. Time Alt. Az.
13 Jul 5.5 21:49:41 10° ENE 21:50:02 10° E 21:50:22 10° E visible
13 Jul 3.3 23:26:13 10° NNE 23:31:00 59° ESE 23:35:41 10° S visible
14 Jul 4.0 23:00:49 10° NNE 23:05:17 38° E 23:09:42 10° SSE visible
15 Jul 4.6 22:35:35 10° NE 22:39:30 24° E 22:43:22 10° SE visible
16 Jul 5.1 22:10:42 10° NE 22:13:36 16° E 22:16:28 10° ESE visible
16 Jul 2.9 23:49:23 10° NNE 23:54:12 89° ENE 23:58:57 10° SSW visible
17 Jul 3.3 23:23:51 10° NNE 23:28:35 57° ESE 23:33:16 10° S visible
18 Jul 4.0 22:58:27 10° NNE 23:02:52 36° E 23:07:15 10° SSE visible
19 Jul 4.6 22:33:13 10° NE 22:37:04 24° E 22:40:53 10° SE visible
20 Jul 3.1 00:12:37 10° N 00:17:20 61° WNW 00:22:00 10° SSW visible
20 Jul 5.1 22:08:22 10° NE 22:11:10 15° E 22:13:58 10° ESE visible
20 Jul 2.9 23:46:59 10° NNE 23:51:47 87° ESE 23:56:34 10° SSW visible
21 Jul 3.3 23:21:28 10° NNE 23:26:09 56° E 23:30:51 10° S visible
22 Jul 4.0 22:56:03 10° NNE 23:00:26 36° E 23:04:50 10° SSE visible
